Wind_Speed
21 21 18 19 22 25 25 26 24 22 19 17 14 12 12 14 18 19 18 17 16 15 14 14 14 13 12 11 9 9 8 8 8 8 9 8 7 5 4 3 3 2 2
17 22 18 19 26 27 29 28 25 23 21 18 15 14 15 17 18 18 18 17 16 15 15 16 16 14 12 11 10 9 10 11 10 9 10 8 7 5 4 4 3 4 5
15 16 29 25 24 29 30 29 27 26 22 19 16 16 17 17 18 19 18 17 17 17 18 18 16 14 13 11 11 9 10 11 8 7 8 8 7 7 7 7 6 6 6
25 31 29 50 34 31 30 30 29 27 24 21 18 18 18 18 20 20 19 18 18 19 19 18 16 15 13 11 9 9 9 9 8 9 10 9 9 9 10 9 9 8 7
32 34 36 46 47 35 32 29 29 28 25 22 20 20 20 20 20 19 19 19 20 19 17 17 16 15 14 12 10 10 11 9 9 11 10 10 10 9 9 9 8 8 8
21 20 21 16 31 31 36 35 34 33 31 28 24 21 20 21 21 20 20 21 19 18 17 16 16 15 13 11 8 11 13 9 9 10 10 10 10 9 8 8 8 9 8
18 16 18 16 33 31 36 38 40 37 32 28 26 24 22 22 21 22 22 21 19 18 17 16 14 11 11 9 8 8 11 8 9 9 9 10 10 10 9 9 8 9 8
15 14 15 13 23 33 29 48 45 41 35 31 27 24 23 22 21 22 22 20 19 17 15 14 12 11 10 9 8 8 11 11 7 7 8 9 9 9 9 9 9 10 10
15 14 11 18 19 27 28 49 52 50 42 33 29 26 25 25 25 25 23 21 19 16 13 10 10 12 8 7 5 4 7 11 6 6 6 7 8 9 9 9 9 10 11
15 15 14 13 16 17 20 6 24 33 38 31 30 29 29 29 28 26 24 21 17 15 13 12 10 6 5 3 3 2 3 8 6 6 7 8 8 8 8 8 9 9 9
13 13 12 12 11 8 8 18 26 28 38 32 30 31 31 31 29 26 23 21 17 13 11 9 5 3 3 4 2 1 3 5 4 5 6 6 5 4 4 5 7 9 10
12 13 10 15 14 10 5 5 25 20 31 34 32 32 31 30 29 25 22 19 15 10 6 5 1 2 4 1 3 2 2 4 1 1 2 2 3 4 5 6 8 11 12
13 10 12 13 13 13 8 8 20 19 31 39 31 34 31 29 26 21 16 13 12 6 4 3 0 3 2 3 5 3 1 1 2 3 2 1 2 4 6 9 12 13 13
11 10 9 11 16 14 12 18 14 24 37 32 39 31 29 28 22 21 19 13 10 9 4 1 2 2 1 4 3 0 4 3 4 4 3 2 3 6 8 9 10 12 14
13 11 5 10 13 21 18 22 20 35 41 36 34 33 28 26 25 21 18 16 11 7 4 1 1 1 2 2 0 3 6 4 3 4 4 6 7 8 10 14 13 12 17
10 8 13 12 17 15 19 21 20 33 34 36 34 30 31 28 27 22 22 15 11 8 3 2 3 2 2 2 3 4 7 6 4 5 7 9 11 13 16 15 13 16 18
9 10 8 13 15 21 22 16 25 32 36 38 36 30 33 31 26 19 15 13 11 7 5 3 5 4 4 4 5 6 7 9 6 6 10 12 14 17 18 15 14 17 20
11 11 12 16 13 18 16 12 30 35 40 37 35 29 33 28 22 19 15 13 12 9 8 8 7 7 6 5 8 8 8 7 13 15 14 15 17 19 18 16 15 19 22
9 13 11 13 8 18 19 29 36 36 36 31 35 37 30 24 21 17 16 14 12 11 11 11 12 12 11 11 11 12 12 12 14 17 20 20 22 22 23 20 20 22 23
16 15 14 11 10 16 21 21 27 29 36 37 34 30 25 23 20 18 17 14 14 13 14 14 16 16 16 17 16 17 17 17 19 20 19 27 31 31 29 22 22 25 27
13 19 22 23 25 26 28 31 37 37 34 32 31 27 25 22 22 19 17 16 15 15 17 17 19 20 20 21 23 23 24 23 23 24 26 26 29 27 25 26 27 27 28
9 14 17 20 21 20 20 25 27 26 25 24 24 26 23 24 21 19 18 18 17 17 21 21 22 24 25 26 28 28 29 29 26 27 31 33 35 30 28 30 28 28 26
10 11 13 14 14 14 15 16 19 21 22 23 23 23 23 23 21 17 17 20 18 19 23 23 23 26 28 33 30 33 32 35 30 30 32 35 37 36 30 28 30 32 33
10 13 14 15 15 15 16 18 20 19 20 19 19 19 20 18 18 15 13 18 19 19 23 27 27 28 29 32 39 35 36 35 33 35 35 35 41 37 31 29 32 33 35
14 14 15 14 13 14 16 15 17 19 19 19 21 21 19 16 14 15 16 20 23 22 25 26 31 36 38 41 45 37 36 38 28 32 35 34 37 41 36 34 36 36 35
15 17 17 18 18 21 21 20 18 18 20 19 19 19 17 16 14 15 17 16 22 29 32 29 30 30 33 32 40 42 36 45 35 32 37 32 33 32 38 38 36 36 38
Wind_Direction
240 224 217 253 222 217 204 197 192 186 180 169 162 154 155 156 152 151 151 152 147 141 134 126 118 112 108 108 109 104 102 97 96 95 91 86 85 81 76 67 49 37 24
263 249 210 238 212 207 195 194 191 185 178 166 160 149 149 148 147 150 149 149 146 139 132 124 120 120 120 120 112 109 105 99 94 91 96 90 83 83 73 56 44 39 24
269 265 250 197 216 206 198 194 191 184 175 167 160 151 153 152 150 151 151 149 142 139 134 130 128 127 123 120 116 110 95 83 91 95 88 81 77 71 67 61 52 51 50
280 279 271 276 225 210 201 193 188 181 175 168 162 157 157 156 155 154 151 148 142 139 136 131 126 123 119 110 106 98 94 102 104 88 76 72 70 68 68 67 64 64 61
283 284 294 270 272 208 205 200 192 187 180 173 169 164 160 157 157 153 149 143 141 139 133 127 124 119 114 107 95 86 74 79 84 81 77 75 75 73 71 71 67 58 53
289 288 252 183 184 211 204 197 194 186 182 178 171 167 163 159 158 154 147 144 141 137 132 126 119 112 103 95 88 82 91 71 73 76 79 79 75 71 64 58 53 50 42
295 277 267 220 210 189 206 203 195 188 180 176 172 168 163 158 159 154 149 146 142 138 133 126 119 103 91 84 61 65 93 85 76 77 76 72 68 64 59 55 48 45 39
291 263 255 246 249 272 303 195 193 188 182 175 171 167 161 157 157 154 150 147 143 141 137 130 117 102 90 78 60 39 67 85 72 73 71 67 64 60 57 53 43 38 29
276 251 253 285 291 296 50 174 184 178 174 170 166 164 158 156 159 157 154 149 148 144 139 132 113 95 90 73 52 7 56 77 81 71 73 73 62 53 50 45 40 35 28
260 248 249 275 264 312 295 147 172 150 153 157 164 159 159 157 158 157 155 150 147 145 140 140 109 104 85 53 40 311 51 72 93 98 84 70 67 61 54 46 35 25 13
255 258 250 254 260 263 348 209 163 155 147 156 159 160 159 161 159 157 154 152 149 147 157 123 121 83 36 12 95 248 67 74 69 76 82 79 65 52 33 20 19 21 17
247 234 223 232 218 245 252 145 175 166 169 156 163 163 162 163 167 160 152 152 155 146 137 116 141 25 5 33 138 165 57 74 40 54 56 47 35 30 37 35 32 23 15
248 232 222 222 193 194 206 196 155 160 178 165 176 168 167 170 166 160 153 156 157 145 150 165 70 26 10 181 164 154 96 37 317 316 331 9 53 43 32 26 18 12 4
225 229 207 172 195 207 210 200 178 181 167 173 167 168 172 173 160 164 170 161 153 165 166 129 21 16 185 163 131 255 310 333 320 332 347 12 28 34 24 7 351 345 349
220 218 190 168 184 193 232 215 205 176 174 174 170 173 177 168 167 184 168 179 177 180 172 104 353 286 172 148 298 316 305 322 329 327 332 345 342 337 331 332 331 330 336
222 201 196 205 215 220 181 186 183 181 179 167 172 170 165 175 173 174 188 187 182 200 189 3 314 326 245 238 269 290 294 309 334 337 345 341 331 322 327 325 323 328 332
184 208 178 171 176 183 192 196 194 189 172 171 170 173 177 170 185 185 193 194 202 215 230 283 314 300 247 254 271 290 299 308 316 335 338 331 324 324 319 313 318 331 336
187 182 191 185 210 196 187 185 191 182 171 179 191 182 171 179 189 194 199 205 218 228 244 259 290 296 275 256 264 279 289 292 307 309 315 316 316 333 324 309 309 322 329
192 203 201 200 217 209 205 188 184 182 183 174 166 172 179 188 197 198 210 214 230 245 254 264 282 297 299 288 277 286 295 302 293 300 310 309 315 314 321 308 302 301 318
80 119 152 178 192 177 168 181 196 184 164 164 168 176 188 198 207 211 218 227 238 251 267 276 281 287 293 292 299 293 285 282 285 294 305 309 318 323 325 322 315 312 312
92 95 114 128 129 138 132 137 146 152 161 170 179 188 199 208 212 226 231 236 248 261 270 273 275 282 290 292 286 283 282 284 288 295 298 298 306 315 313 313 312 310 311
126 118 129 141 136 136 138 148 156 165 176 182 190 199 206 217 226 233 243 249 252 259 267 270 277 285 283 284 289 280 280 284 288 294 294 299 305 309 302 306 304 307 303
180 167 158 157 159 159 158 167 174 184 192 199 204 210 215 222 230 237 245 254 264 265 271 273 281 284 287 278 279 285 280 283 287 285 288 294 301 303 299 299 302 303 304
180 189 190 190 187 184 188 193 194 201 203 205 210 217 227 225 229 243 255 268 282 283 280 280 282 281 280 273 284 265 276 275 280 284 286 299 300 299 297 293 296 296 300
178 183 182 186 189 195 200 206 206 208 212 215 219 222 228 233 236 243 255 259 270 280 276 277 301 283 278 272 291 271 275 266 264 269 278 287 289 289 289 291 289 294 298
194 192 189 188 192 198 201 206 210 211 215 222 228 232 237 247 251 257 268 287 279 281 282 278 292 302 288 286 279 274 273 287 266 267 283 288 291 281 287 291 291 297 305
Height
3132 3134 3137 3141 3140 3142 3145 3149 3150 3150 3151 3153 3154 3154 3156 3158 3159 3162 3163 3164 3165 3166 3167 3168 3169 3170 3171 3172 3173 3173 3174 3174 3175 3175 3174 3174 3174 3174 3174 3173 3173 3173 3173
3131 3132 3134 3139 3140 3140 3142 3146 3146 3147 3149 3151 3153 3153 3155 3157 3160 3162 3163 3164 3166 3166 3168 3169 3170 3172 3173 3173 3174 3175 3175 3176 3175 3175 3174 3174 3174 3174 3174 3174 3174 3174 3174
3128 3127 3120 3132 3142 3141 3140 3143 3143 3144 3147 3149 3152 3153 3155 3157 3159 3161 3163 3165 3166 3167 3169 3170 3172 3173 3174 3174 3173 3175 3176 3177 3176 3176 3175 3174 3174 3174 3174 3175 3175 3174 3174
3126 3126 3121 3108 3124 3140 3140 3139 3141 3141 3145 3148 3150 3152 3153 3155 3158 3160 3162 3165 3166 3168 3169 3170 3173 3173 3174 3175 3174 3175 3176 3177 3177 3175 3175 3175 3174 3175 3175 3175 3175 3175 3175
3119 3118 3115 3106 3118 3132 3137 3137 3139 3140 3143 3146 3148 3150 3152 3154 3157 3160 3162 3165 3167 3169 3171 3172 3174 3175 3175 3174 3174 3174 3176 3176 3176 3176 3176 3175 3175 3175 3175 3174 3175 3174 3174
3116 3116 3117 3111 3117 3127 3129 3129 3133 3134 3138 3142 3144 3148 3150 3153 3155 3160 3162 3166 3169 3170 3172 3174 3175 3176 3175 3175 3175 3176 3177 3175 3177 3176 3176 3175 3175 3175 3175 3175 3174 3174 3174
3115 3114 3113 3114 3096 3114 3119 3124 3126 3130 3135 3140 3143 3145 3148 3152 3155 3158 3162 3165 3169 3171 3172 3174 3175 3176 3176 3175 3175 3176 3178 3177 3176 3176 3176 3175 3175 3175 3175 3174 3174 3173 3173
3113 3112 3111 3111 3105 3090 3087 3108 3119 3126 3131 3136 3141 3145 3148 3151 3155 3158 3162 3165 3169 3171 3172 3174 3175 3175 3176 3175 3174 3174 3177 3177 3176 3176 3176 3176 3176 3175 3175 3175 3174 3174 3174
3112 3113 3110 3108 3108 3102 3079 3091 3098 3112 3124 3133 3139 3144 3147 3149 3153 3157 3160 3164 3168 3170 3172 3174 3175 3175 3176 3176 3175 3174 3176 3177 3177 3176 3175 3175 3175 3175 3175 3174 3174 3173 3173
3110 3108 3107 3105 3105 3102 3095 3099 3098 3104 3113 3129 3139 3141 3146 3148 3153 3156 3159 3163 3167 3170 3171 3173 3173 3176 3176 3175 3174 3174 3176 3177 3177 3177 3175 3174 3174 3174 3175 3175 3174 3173 3173
3106 3106 3103 3107 3104 3110 3107 3107 3113 3110 3118 3132 3139 3141 3145 3148 3153 3156 3158 3162 3166 3169 3172 3171 3174 3175 3175 3174 3174 3172 3174 3175 3175 3175 3175 3174 3174 3174 3174 3173 3173 3172 3172
3105 3106 3103 3106 3107 3109 3108 3109 3109 3113 3120 3128 3138 3138 3145 3149 3153 3156 3158 3161 3166 3168 3171 3172 3174 3174 3174 3174 3173 3173 3174 3175 3175 3175 3174 3174 3174 3174 3174 3173 3172 3170 3170
3100 3100 3102 3104 3104 3105 3106 3108 3111 3116 3122 3127 3132 3142 3147 3148 3153 3157 3160 3163 3166 3169 3171 3173 3173 3173 3173 3174 3173 3172 3173 3174 3174 3174 3173 3173 3173 3172 3172 3171 3170 3169 3169
3099 3098 3100 3102 3105 3104 3108 3112 3116 3120 3123 3126 3134 3142 3146 3150 3154 3159 3163 3164 3166 3169 3171 3172 3172 3173 3173 3173 3172 3172 3172 3173 3173 3172 3171 3171 3171 3171 3170 3168 3168 3168 3167
3096 3096 3097 3099 3101 3105 3108 3111 3115 3117 3122 3126 3135 3141 3146 3151 3155 3160 3162 3164 3166 3168 3170 3170 3171 3172 3172 3171 3171 3171 3170 3171 3171 3170 3170 3169 3169 3168 3168 3167 3165 3165 3164
3091 3092 3095 3097 3099 3102 3106 3110 3112 3116 3120 3128 3135 3141 3146 3151 3156 3159 3161 3163 3165 3167 3169 3169 3170 3170 3170 3170 3170 3170 3170 3169 3169 3169 3168 3168 3168 3167 3166 3165 3163 3162 3160
3089 3090 3093 3094 3097 3102 3105 3107 3109 3113 3119 3128 3135 3140 3146 3150 3154 3158 3161 3163 3165 3166 3167 3168 3169 3169 3169 3168 3169 3168 3169 3166 3167 3166 3165 3167 3166 3165 3163 3161 3159 3158 3155
3087 3088 3090 3093 3097 3100 3103 3104 3108 3113 3120 3128 3133 3139 3145 3148 3152 3156 3159 3161 3163 3164 3165 3166 3167 3167 3166 3166 3167 3167 3167 3165 3162 3162 3164 3163 3163 3161 3159 3157 3153 3151 3150
3085 3087 3089 3092 3094 3097 3100 3103 3108 3114 3121 3127 3130 3137 3142 3147 3151 3155 3157 3159 3160 3162 3163 3163 3163 3164 3163 3162 3163 3162 3164 3162 3161 3159 3156 3158 3157 3156 3154 3152 3150 3148 3147
3087 3085 3088 3091 3092 3096 3102 3105 3109 3115 3121 3126 3133 3138 3142 3146 3150 3153 3154 3156 3157 3159 3159 3160 3160 3160 3161 3160 3158 3158 3158 3159 3158 3158 3156 3149 3145 3143 3141 3143 3144 3142 3141
3092 3091 3091 3093 3096 3100 3102 3105 3110 3116 3121 3127 3132 3136 3141 3144 3148 3149 3152 3153 3154 3155 3156 3156 3157 3157 3156 3155 3156 3154 3153 3151 3151 3150 3148 3149 3147 3145 3141 3138 3135 3134 3132
3096 3096 3099 3101 3103 3105 3107 3111 3115 3119 3124 3129 3132 3135 3138 3141 3144 3146 3147 3149 3151 3151 3152 3153 3153 3153 3152 3151 3150 3149 3146 3145 3143 3143 3140 3139 3136 3137 3135 3132 3130 3129 3129
3098 3100 3101 3102 3104 3107 3109 3112 3116 3120 3123 3126 3128 3131 3135 3138 3140 3142 3144 3145 3146 3147 3147 3148 3148 3146 3146 3145 3144 3144 3141 3138 3137 3137 3135 3133 3128 3127 3128 3125 3122 3120 3119
3098 3099 3101 3103 3105 3106 3109 3112 3114 3117 3119 3122 3126 3130 3132 3134 3137 3138 3140 3140 3141 3143 3143 3142 3141 3141 3139 3136 3137 3135 3134 3133 3129 3128 3127 3127 3122 3119 3119 3118 3115 3113 3111
3096 3099 3100 3100 3100 3104 3107 3109 3112 3114 3117 3121 3123 3125 3127 3129 3130 3132 3134 3134 3134 3136 3136 3135 3135 3132 3131 3124 3125 3126 3126 3123 3121 3122 3122 3124 3117 3114 3110 3109 3108 3106 3103
3097 3098 3098 3098 3101 3105 3107 3109 3111 3112 3114 3115 3117 3120 3122 3124 3126 3128 3130 3131 3130 3130 3130 3129 3127 3125 3124 3122 3119 3116 3115 3116 3115 3114 3115 3114 3114 3111 3105 3103 3100 3096 3091